Regional Weather Roundup
Issued by NWS Boston, MA

Home | Current Version | Previous Version | Text Only | Print | Product List | Glossary On
Versions: 1 2 3 4 5 6 7 8 9 10 11 12 13 14 15 16 17 18 19 20 21 22 23 24 25 26 27 28 29 30 31 32 33 34 35 36 37 38 39 40 41 42 43 44 45 46 47 48 49 50
000
ASUS41 KBOX 281910
RWRBOX

REGIONAL WEATHER ROUNDUP
NATIONAL WEATHER SERVICE TAUNTON MA
200 PM EST FRI NOV 28 2014

NOTE:  "FAIR" INDICATES FEW OR NO CLOUDS BELOW 12,000 FEET WITH NO
SIGNIFICANT WEATHER AND/OR OBSTRUCTIONS TO VISIBILITY.  THE FOLLOWING
OBSERVATION LOCATIONS DO NOT REPORT PRESENT WEATHER...PROVINCETOWN...
SMITHFIELD...BLOCK ISLAND...KEENE...AND OXFORD.

MAZALL-282000-
EASTERN MASSACHUSETTS

CITY           SKY/WX    TMP DP  RH WIND       PRES   REMARKS
BOSTON         MOSUNNY   34  20  56 NW13G23   30.07R WCI  25
BEVERLY        MOSUNNY   32  19  58 NW13      30.05R WCI  22
LAWRENCE       SUNNY     31  20  63 NW8       30.07R WCI  23
BEDFORD        MOSUNNY   32  19  58 NW10      30.05R WCI  24
BLUE HILL        N/A     30  19  63 NW14G22   30.01S WCI  19
NORWOOD        SUNNY     36  19  50 NW15G21   30.06R WCI  27
MARSHFIELD     MOSUNNY  N/A N/A N/A NW12      30.07R
PLYMOUTH       MOSUNNY   35  23  61 NW12G18   30.05R WCI  27
TAUNTON        MOSUNNY   37  18  46 NW14G23   30.05R WCI  28
NEW BEDFORD    MOSUNNY   36  22  56 VRB7G17   30.04R WCI  30
$$

MAZALL-282000-
CAPE COD AND THE ISLANDS

CITY           SKY/WX    TMP DP  RH WIND       PRES   REMARKS
FALMOUTH       CLOUDY    34  21  60 N14       30.04S WCI  24
HYANNIS        CLOUDY    34  25  69 NW13G22   30.02R WCI  25
CHATHAM        CLOUDY    32  25  75 NW10G22   30.03R WCI  24
PROVINCETOWN   CLOUDY    34  27  75 NW16G24   30.05R WCI  23
NANTUCKET      LGT SNOW  34  27  75 NW20G29   30.03R WCI  23
MARTHAS VNYRD  PTSUNNY   36  22  56 NW15G22   30.03S WCI  27
$$

MAZALL-282000-
CENTRAL AND WESTERN MASSACHUSETTS

CITY           SKY/WX    TMP DP  RH WIND       PRES   REMARKS
WORCESTER      MOSUNNY   29  20  69 NW16      30.02R WCI  17
FITCHBURG      PTSUNNY   33  17  51 NW12G24   30.06S WCI  24
ORANGE           N/A     30  20  66 NW10      30.06R WCI  21
SPRINGFIELD    CLOUDY    34  18  52 NW10      30.08S WCI  26
WESTFIELD      MOSUNNY   33  18  53 NW13      30.09S WCI  24
NORTH ADAMS    CLOUDY    28  19  69 W8        30.09S WCI  20
PITTSFIELD     LGT SNOW  25  18  74 W14       30.06R WCI  13
$$

RIZALL-282000-
RHODE ISLAND

CITY           SKY/WX    TMP DP  RH WIND       PRES   REMARKS
PROVIDENCE     MOSUNNY   37  20  50 NW12G24   30.06S WCI  29
NEWPORT        MOSUNNY   39  21  48 NW15      30.04F WCI  31
BLOCK ISLAND   MOSUNNY   37  19  48 NW16G24   30.05S WCI  28
SMITHFIELD     MOSUNNY   34  18  51 W10G21    30.03S WCI  26
WESTERLY       SUNNY     37  18  46 NW17G25   30.07S WCI  27
$$

CTZALL-282000-
CONNECTICUT

CITY           SKY/WX    TMP DP  RH WIND       PRES   REMARKS
BRADLEY INTL   MOSUNNY   36  18  48 N12       30.09S WCI  28
HARTFORD       PTSUNNY   35  18  49 NW12G20   30.11S WCI  27
BRIDGEPORT     SUNNY     39  18  42 NW17      30.12S WCI  30
DANBURY        PTSUNNY   33  17  51 W8        30.12S WCI  26
GROTON         SUNNY     37  18  46 N16G23    30.08R WCI  28
NEW HAVEN      PTSUNNY   40  18  41 NW12G18   30.11R
CHESTER        FAIR      34  19  55 NW17G24   30.09R WCI  23
MERIDEN        MOSUNNY   36  18  48 NW16      30.11R WCI  26
WILLIMANTIC    PTSUNNY   36  17  46 NW13G22   30.09R WCI  27
OXFORD         PTSUNNY   32  16  51 N12G17    30.09S WCI  23
$$

MEZ002-015-021-024-NHZ003-005-008-011-012-014-VTZ005-008-282000-
NORTHERN NEW ENGLAND

CITY           SKY/WX    TMP DP  RH WIND       PRES   REMARKS
PORTLAND ME    CLOUDY    31  22  69 W6        30.03F WCI  25
BANGOR ME      CLOUDY    24  15  68 NW7       30.02R WCI  16
CONCORD NH     NOT AVBL
MANCHESTER NH  PTSUNNY   33  21  61 NW8       30.03F WCI  26
NASHUA NH      MOSUNNY   33  21  61 N15       30.06S WCI  23
PORTSMOUTH NH  MOSUNNY   31  18  57 NW16G22   30.03S WCI  20
JAFFREY NH     PTSUNNY   29  17  61 VRB6G22   30.02S WCI  23
KEENE NH       PTSUNNY   30  18  59 NW6       30.07R WCI  24
BURLINGTON VT  FLURRIES  27  13  55 W9        30.10R WCI  18
MT. WASHINGTON SNOW       1   1 100 NW38        N/A  VSB 1/16WCI -26
$$

NYZ052-076-282000-
EASTERN NEW YORK

CITY           SKY/WX    TMP DP  RH WIND       PRES   REMARKS
ALBANY         PTSUNNY   29  17  61 NW17G28   30.15R WCI  17
NEW YORK CITY  PTSUNNY   36  19  51 NW13G29   30.16R WCI  27
$$

ANZALL-282000-
MARINE OBSERVATIONS

STATION/POSITION TIME  TEMP    WIND        PRES    VSBY  WAVE
                       AIR SEA DIR/SP/G                  HT/PER
                 (UTC) (F)     (DEG/KT/KT) (MB)    (MI)  (FT/S)
BOSTON BUOY      1850   34 50  330/ 17/ 25 1017.3R         4/ 6
BUZZARDS BAY     1800          320/ 22/ 25 1018.0R
NANTUCKET SOUND  1850   35 46  330/ 21/ 27 1016.2R         3/ 4
MASS BAY-STELLWA 1804   31 50  310/ 14/ 17   N/A    1 7/8  4/ 6
ISLE OF SHOALS   1900   32     310/ 17/ 21 1016.5F
S OF BLOCK IS    1808      55                N/A           5/ 5
$$

......................KEY.........................
  SKY/WX - SKY CONDITION/PRESENT WEATHER
  TMP    - TEMPERATURE IN FAHRENHEIT
  DWPT   - DEWPOINT IN FAHRENHEIT
  RH     - RELATIVE HUMIDITY IN PERCENT
  WIND   - DIRECTION AND SPEED IN MPH
  PRES   - MEAN SEA LEVEL PRESSURE IN INCHES OF HG
  WCI    - WIND CHILL INDEX
  VSB    - VISIBILITY IN MILES
  HX     - HEAT INDEX
  TC     - TEMPERATURE IN CELSIUS
  VRB    - VARIABLE WIND DIRECTION
  N/A    - NOT AVAILABLE



USA.gov is the U.S. government's official web portal to all federal, state and local government web resources and services.